Regional Weather Roundup
Issued by NWS

Home | Current Version | Previous Version | Text Only | Print | Product List | Glossary Off
Versions: 1 2 3 4 5 6 7 8 9 10 11 12 13 14 15 16 17 18 19 20 21 22 23 24 25 26 27 28 29 30 31 32 33 34 35 36 37 38 39 40 41 42 43 44 45 46 47 48 49 50

000
ASUS43 KDTX 120410
RWRMI
MICHIGAN HOURLY REGIONAL WEATHER ROUNDUP
NATIONAL WEATHER SERVICE DETROIT/PONTIAC MI
1200 AM EDT SAT JUL 12 2014

NOTE: "FAIR" INDICATES FEW OR NO CLOUDS BELOW 12,000 FEET WITH NO
SIGNIFICANT WEATHER AND/OR OBSTRUCTION TO VISIBILITY.

MIZ047>049-052>055-059>063-066>070-074>076-081>083-120500-
SOUTHEAST LOWER MICHIGAN

CITY           SKY/WX    TMP DP  RH WIND       PRES   REMARKS
ADRIAN         MOCLDY    69  59  70 S5        30.19S
ALMA           PTCLDY    64  61  91 CALM      30.16S
ANN ARBOR      PTCLDY    59  55  87 CALM      30.19R
BAD AXE        PTCLDY    64  59  83 S3        30.17S
DETROIT CITY   CLEAR     70  56  61 S5        30.19R
DETROIT        MOCLDY    70  60  70 CALM      30.19R
FLINT          CLEAR     69  58  67 S5        30.18R
GROSSE ILE     MOCLDY    72  63  73 SE5       30.17S
HILLSDALE      CLOUDY    69  62  79 CALM      30.19S
HOWELL         PTCLDY    66  58  75 S3        30.18S

CITY           SKY/WX    TMP DP  RH WIND       PRES   REMARKS
JACKSON        MOCLDY    70  60  70 S5        30.19R
LAMBERTVILLE   MOCLDY    68  59  73 CALM      30.20R
LANSING        PTCLDY    68  60  75 CALM      30.17S
LAPEER         NOT AVBL
MASON          MOCLDY    66  60  82 SE5       30.17F
MONROE         MOCLDY    70  61  73 CALM      30.17R
MT. CLEMENS    CLEAR     68  60  74 S3        30.18R
PONTIAC        MOCLDY    69  56  62 S3        30.19R
PORT HOPE        N/A     67  60  78 S3        30.15F
PORT HURON     PTCLDY    59  59 100 CALM      30.19S
TRI CITIES     PTCLDY    70  60  70 S3        30.16S
YPSILANTI      PTCLDY    69  59  70 CALM      30.19R
$$
MIZ043>046-050>051-056>058-064>065-071>073-077>080-120500-
SOUTHWEST LOWER MICHIGAN

CITY           SKY/WX    TMP DP  RH WIND       PRES   REMARKS
BATTLE CREEK   MOCLDY    71  61  70 S5        30.18S
BENTON HARBOR  MOCLDY    66  63  90 CALM      30.15S
BIG RAPIDS     PTCLDY    64  59  85 CALM      30.15S
COLDWATER      MOCLDY    67  62  84 CALM      30.18S
HOLLAND        PTCLDY    67  59  75 E3        30.16S
GRAND RAPIDS   MOCLDY    70  62  76 E3        30.16S
KALAMAZOO      MOCLDY    68  61  78 CALM      30.17S
MARSHALL       MOCLDY    68  62  80 CALM      30.17S
MUSKEGON       CLEAR     67  57  70 CALM      30.14F
$$
MIZ016>042-120500-
NORTHERN LOWER MICHIGAN

CITY           SKY/WX    TMP DP  RH WIND       PRES   REMARKS
ALPENA         MOCLDY    67  57  70 S5        30.13S
BEAVER ISLAND  CLOUDY    69  52  53 S10G18    30.08F
BELLAIRE       MOCLDY    66  58  74 S3        30.11F
CADILLAC       CLOUDY    67  59  74 S3        30.15S
CHARLEVOIX     CLOUDY    71  55  58 S5        30.13F
FRANKFORT      CLOUDY    72  51  47 S5        30.11S
GAYLORD        CLEAR     64  60  87 S5        30.15S
GRAYLING       CLEAR     66  58  74 CALM      30.16S
HARBOR SPRINGS CLEAR     65  60  85 CALM      30.10S
HOUGHTON LAKE  CLEAR     68  56  65 S7        30.16S
MANISTEE       CLOUDY    68  54  60 CALM      30.13S
OSCODA         PTCLDY    63  58  83 CALM      30.14S
TRAVERSE CITY  CLOUDY    72  56  57 S3        30.10F
$$
MIZ007>008-015-120500-
EASTERN UPPER MICHIGAN

CITY           SKY/WX    TMP DP  RH WIND       PRES   REMARKS
KINROSS        MOCLDY    64  54  68 S8        30.09S
MACKINAC ISLAN PTCLDY    63  58  83 S7        30.10S
NEWBERRY       CLOUDY    63  51  65 S15G21    30.06F
S. S. MARIE    CLOUDY    63  57  81 SE5       30.08F
$$
MIZ004>006-011>014-085-120500-
CENTRAL UPPER MICHIGAN

CITY           SKY/WX    TMP DP  RH WIND       PRES   REMARKS
MANISTIQUE     CLOUDY    57  52  84 S6        30.06S
ESCANABA       CLOUDY    66  55  68 SW13G20   30.04S
MENOMINEE      CLEAR     70  54  56 SW6       30.04S
SAWYER-GWINN   PTCLDY    65  56  72 S7        30.03S
$$
MIZ001>003-009>011-084-120500-
WESTERN UPPER MICHIGAN

CITY           SKY/WX    TMP DP  RH WIND       PRES   REMARKS
IRON MOUNTAIN  CLOUDY    69  57  65 S7        30.03S
HOUGHTON       CLEAR     67  62  84 SW6       29.96S
COPPER HARBOR    N/A     66  61  84 W8        29.94R
IRONWOOD       PTCLDY    70  63  78 SW10      29.98R
$$

ABBREVIATIONS USED IN REMARKS
   TC - TEMPERATURE IN CELSIUS
  WCI - WIND CHILL INDEX
   HX - HEAT INDEX
  VSB - VISIBILITY




USA.gov is the U.S. government's official web portal to all federal, state and local government web resources and services.